VOZ175 YBBN-NFFN

Flight info

Callsign VOZ175
Flight time 3h 17m
Altitude 35000
Route GUMKI B578 TEBUR B602 ATPEN B599 ALBAB DCT MI
Aircraft A320/M-SDE3FGHIRWY/LB1

Departure

Time 2026-04-28 15:13
Airport Brisbane International Airport (YBBN)

Arrival

Time 2026-04-28 18:31
Airport Nadi International Airport (NFFN)
Time Latitude Longitude Altitude Speed Heading
2026-04-28 14:14 -27.40047 153.11347 21 ft 0 kts 296°
2026-04-28 15:04 -27.40057 153.11371 21 ft 4 kts 296°
2026-04-28 15:05 -27.40066 153.11391 22 ft 4 kts 275°
2026-04-28 15:05 -27.40068 153.11419 21 ft 3 kts 291°
2026-04-28 15:05 -27.40080 153.11443 21 ft 4 kts 329°
2026-04-28 15:05 -27.40094 153.11448 22 ft 4 kts
2026-04-28 15:06 -27.40112 153.11442 21 ft 0 kts 27°
2026-04-28 15:07 -27.40082 153.11461 21 ft 9 kts 31°
2026-04-28 15:08 -27.40016 153.11508 21 ft 12 kts 32°
2026-04-28 15:08 -27.39943 153.11553 23 ft 12 kts 27°
2026-04-28 15:08 -27.39875 153.11601 23 ft 11 kts 49°
2026-04-28 15:08 -27.39857 153.11690 21 ft 13 kts 53°
2026-04-28 15:09 -27.39772 153.11747 23 ft 16 kts 27°
2026-04-28 15:09 -27.39666 153.11810 23 ft 19 kts 28°
2026-04-28 15:09 -27.39546 153.11875 21 ft 18 kts 27°
2026-04-28 15:09 -27.39513 153.11996 21 ft 18 kts 90°
2026-04-28 15:10 -27.39424 153.12084 21 ft 19 kts 27°
2026-04-28 15:10 -27.39306 153.12152 22 ft 20 kts 27°
2026-04-28 15:10 -27.39181 153.12224 23 ft 21 kts 26°
2026-04-28 15:10 -27.39045 153.12301 22 ft 23 kts 27°
2026-04-28 15:11 -27.38901 153.12384 21 ft 24 kts 27°
2026-04-28 15:11 -27.38747 153.12472 22 ft 25 kts 26°
2026-04-28 15:11 -27.38604 153.12553 21 ft 23 kts 27°
2026-04-28 15:11 -27.38463 153.12631 23 ft 20 kts 28°
2026-04-28 15:12 -27.38429 153.12732 22 ft 14 kts 110°
2026-04-28 15:12 -27.38480 153.12825 25 ft 15 kts 146°
2026-04-28 15:12 -27.38624 153.12770 22 ft 39 kts 207°
2026-04-28 15:12 -27.39093 153.12502 21 ft 109 kts 207°
2026-04-28 15:13 -27.39934 153.12018 32 ft 160 kts 207°
2026-04-28 15:13 -27.40949 153.11430 602 ft 165 kts 207°
2026-04-28 15:13 -27.41972 153.10870 1364 ft 161 kts 195°
2026-04-28 15:13 -27.43067 153.10813 1976 ft 163 kts 162°
2026-04-28 15:14 -27.44147 153.11409 2319 ft 185 kts 148°
2026-04-28 15:14 -27.45331 153.12173 2669 ft 208 kts 149°
2026-04-28 15:14 -27.46611 153.12996 3451 ft 214 kts 149°
2026-04-28 15:14 -27.47898 153.13818 4195 ft 217 kts 148°
2026-04-28 15:15 -27.49268 153.14541 4887 ft 221 kts 162°
2026-04-28 15:15 -27.50845 153.14687 5357 ft 242 kts 184°
2026-04-28 15:15 -27.52572 153.14288 5721 ft 262 kts 188°
2026-04-28 15:15 -27.54368 153.13831 6393 ft 267 kts 189°
2026-04-28 15:16 -27.56182 153.13295 7114 ft 273 kts 196°
2026-04-28 15:16 -27.57983 153.12578 7845 ft 276 kts 194°
2026-04-28 15:16 -27.59871 153.12266 8500 ft 274 kts 174°
2026-04-28 15:16 -27.61710 153.12755 9177 ft 273 kts 153°
2026-04-28 15:17 -27.63263 153.13982 9845 ft 275 kts 133°
2026-04-28 15:17 -27.64445 153.15724 10266 ft 288 kts 126°
2026-04-28 15:17 -27.65642 153.17636 10459 ft 309 kts 125°
2026-04-28 15:17 -27.66913 153.19684 10600 ft 329 kts 125°
2026-04-28 15:18 -27.68263 153.21861 10753 ft 348 kts 125°
2026-04-28 15:18 -27.69667 153.24118 11164 ft 355 kts 125°
2026-04-28 15:18 -27.71060 153.26443 11665 ft 360 kts 120°
2026-04-28 15:18 -27.72079 153.29005 12180 ft 365 kts 108°
2026-04-28 15:19 -27.72623 153.31825 12708 ft 371 kts 97°
2026-04-28 15:19 -27.72715 153.34786 13260 ft 375 kts 91°
2026-04-28 15:19 -27.72739 153.37708 13781 ft 380 kts 91°
2026-04-28 15:19 -27.72768 153.40703 14306 ft 383 kts 91°
2026-04-28 15:20 -27.72796 153.43724 14783 ft 386 kts 90°
2026-04-28 15:20 -27.72525 153.46752 15209 ft 392 kts 75°
2026-04-28 15:20 -27.71409 153.49570 15665 ft 397 kts 56°
2026-04-28 15:20 -27.69516 153.51844 16138 ft 402 kts 37°
2026-04-28 15:21 -27.67042 153.53301 16666 ft 405 kts 18°
2026-04-28 15:21 -27.64255 153.53832 17169 ft 409 kts
2026-04-28 15:21 -27.61407 153.54078 17683 ft 412 kts
2026-04-28 15:21 -27.58537 153.54310 18211 ft 415 kts
2026-04-28 15:22 -27.55647 153.54539 18708 ft 418 kts
2026-04-28 15:22 -27.52735 153.54770 19164 ft 421 kts
2026-04-28 15:22 -27.49800 153.55005 19590 ft 424 kts
2026-04-28 15:22 -27.46848 153.55244 20047 ft 427 kts
2026-04-28 15:23 -27.43882 153.55485 20500 ft 429 kts
2026-04-28 15:23 -27.40903 153.55789 20924 ft 431 kts
2026-04-28 15:23 -27.37974 153.56552 21322 ft 433 kts 18°
2026-04-28 15:23 -27.35111 153.57641 21709 ft 435 kts 19°
2026-04-28 15:24 -27.32270 153.58833 22092 ft 437 kts 25°
2026-04-28 15:24 -27.29636 153.60560 22444 ft 439 kts 36°
2026-04-28 15:24 -27.27333 153.62825 22784 ft 442 kts 47°
2026-04-28 15:24 -27.25442 153.65540 23121 ft 443 kts 58°
2026-04-28 15:25 -27.24025 153.68620 23444 ft 445 kts 69°
2026-04-28 15:25 -27.22993 153.71912 23771 ft 448 kts 71°
2026-04-28 15:25 -27.21982 153.75229 24031 ft 450 kts 71°
2026-04-28 15:25 -27.20976 153.78523 24289 ft 453 kts 70°
2026-04-28 15:26 -27.19948 153.81875 24564 ft 454 kts 70°
2026-04-28 15:26 -27.18912 153.85238 24802 ft 457 kts 70°
2026-04-28 15:26 -27.17791 153.88581 25061 ft 459 kts 68°
2026-04-28 15:26 -27.16544 153.91896 25317 ft 461 kts 65°
2026-04-28 15:27 -27.15217 153.95170 25642 ft 461 kts 64°
2026-04-28 15:27 -27.13856 153.98425 26017 ft 461 kts 64°
2026-04-28 15:27 -27.12498 154.01684 26397 ft 459 kts 64°
2026-04-28 15:27 -27.11162 154.04946 26712 ft 460 kts 64°
2026-04-28 15:28 -27.09848 154.08227 27078 ft 461 kts 65°
2026-04-28 15:28 -27.08550 154.11510 27450 ft 460 kts 65°
2026-04-28 15:28 -27.07258 154.14797 27819 ft 460 kts 65°
2026-04-28 15:28 -27.05971 154.18078 28218 ft 460 kts 64°
2026-04-28 15:29 -27.04677 154.21361 28594 ft 459 kts 64°
2026-04-28 15:29 -27.03380 154.24634 28942 ft 459 kts 64°
2026-04-28 15:29 -27.02076 154.27906 29302 ft 460 kts 64°
2026-04-28 15:29 -27.00770 154.31176 29674 ft 460 kts 64°
2026-04-28 15:30 -26.99463 154.34448 30080 ft 460 kts 64°
2026-04-28 15:30 -26.98160 154.37716 30465 ft 459 kts 64°
2026-04-28 15:30 -26.96860 154.40977 30832 ft 457 kts 64°
2026-04-28 15:30 -26.95564 154.44228 31189 ft 456 kts 64°
2026-04-28 15:31 -26.94270 154.47474 31547 ft 456 kts 64°
2026-04-28 15:31 -26.92977 154.50710 31906 ft 455 kts 64°
2026-04-28 15:31 -26.91686 154.53944 32268 ft 454 kts 64°
2026-04-28 15:31 -26.90396 154.57165 32629 ft 453 kts 63°
2026-04-28 15:32 -26.89106 154.60377 32987 ft 452 kts 63°
2026-04-28 15:32 -26.88249 154.62504 33221 ft 451 kts 63°
2026-04-28 15:32 -26.86525 154.66779 33673 ft 450 kts 63°
2026-04-28 15:32 -26.85238 154.69970 34006 ft 449 kts 63°
2026-04-28 15:33 -26.83950 154.73165 34223 ft 451 kts 62°
2026-04-28 15:33 -26.82672 154.76335 34411 ft 453 kts 62°
2026-04-28 15:33 -26.81376 154.79550 34627 ft 453 kts 62°
2026-04-28 15:33 -26.80084 154.82768 34847 ft 453 kts 62°
2026-04-28 15:34 -26.78789 154.85990 35066 ft 453 kts 62°
2026-04-28 15:34 -26.77490 154.89209 35175 ft 455 kts 62°
2026-04-28 15:34 -26.76179 154.92445 35210 ft 460 kts 62°
2026-04-28 15:35 -26.73499 154.99047 35210 ft 471 kts 61°
2026-04-28 15:35 -26.69407 155.09133 35200 ft 476 kts 61°
2026-04-28 15:36 -26.66680 155.15876 35198 ft 476 kts 61°
2026-04-28 15:36 -26.63917 155.22640 35202 ft 481 kts 59°
2026-04-28 15:37 -26.61136 155.29452 35197 ft 482 kts 59°
2026-04-28 15:37 -26.58823 155.35115 35200 ft 482 kts 59°
2026-04-28 15:38 -26.55563 155.43087 35202 ft 482 kts 59°
2026-04-28 15:38 -26.52767 155.49904 35197 ft 482 kts 59°
2026-04-28 15:39 -26.49989 155.56669 35198 ft 482 kts 59°
2026-04-28 15:39 -26.47194 155.63479 35165 ft 483 kts 58°
2026-04-28 15:40 -26.44390 155.70288 35169 ft 483 kts 57°
2026-04-28 15:40 -26.41612 155.77128 35173 ft 485 kts 59°
2026-04-28 15:41 -26.39024 155.84109 35181 ft 487 kts 60°
2026-04-28 15:41 -26.36494 155.91127 35183 ft 487 kts 60°
2026-04-28 15:42 -26.33914 155.98112 35177 ft 487 kts 59°
2026-04-28 15:42 -26.31291 156.05068 35180 ft 487 kts 59°
2026-04-28 15:43 -26.28653 156.12020 35186 ft 487 kts 59°
2026-04-28 15:43 -26.26033 156.18975 35170 ft 487 kts 59°
2026-04-28 15:44 -26.23418 156.25931 35166 ft 487 kts 59°
2026-04-28 15:44 -26.20796 156.32885 35179 ft 486 kts 59°
2026-04-28 15:45 -26.18175 156.39820 35185 ft 486 kts 59°
2026-04-28 15:45 -26.15539 156.46751 35174 ft 486 kts 59°
2026-04-28 15:46 -26.12910 156.53676 35177 ft 485 kts 59°
2026-04-28 15:46 -26.10281 156.60587 35162 ft 485 kts 59°
2026-04-28 15:47 -26.07651 156.67487 35146 ft 484 kts 59°
2026-04-28 15:47 -26.05030 156.74336 35160 ft 484 kts 59°
2026-04-28 15:48 -26.02398 156.81232 35164 ft 484 kts 59°
2026-04-28 15:48 -25.99757 156.88124 35168 ft 484 kts 59°
2026-04-28 15:49 -25.97115 156.95008 35163 ft 484 kts 59°
2026-04-28 15:49 -25.94475 157.01887 35168 ft 484 kts 59°
2026-04-28 15:50 -25.92271 157.07600 35163 ft 484 kts 59°
2026-04-28 15:50 -25.89617 157.14469 35164 ft 484 kts 59°
2026-04-28 15:51 -25.86967 157.21338 35164 ft 483 kts 59°
2026-04-28 15:51 -25.84320 157.28195 35150 ft 483 kts 59°
2026-04-28 15:52 -25.81662 157.35048 35152 ft 483 kts 59°
2026-04-28 15:52 -25.79000 157.41897 35153 ft 483 kts 59°
2026-04-28 15:53 -25.76343 157.48752 35150 ft 483 kts 59°
2026-04-28 15:53 -25.73678 157.55605 35141 ft 483 kts 59°
2026-04-28 15:54 -25.71020 157.62400 35146 ft 483 kts 59°
2026-04-28 15:54 -25.68345 157.69241 35116 ft 484 kts 59°
2026-04-28 15:55 -25.65679 157.76087 35125 ft 484 kts 59°
2026-04-28 15:55 -25.62998 157.82933 35133 ft 484 kts 59°
2026-04-28 15:56 -25.60313 157.89763 35133 ft 484 kts 59°
2026-04-28 15:56 -25.57607 157.96616 35138 ft 484 kts 59°
2026-04-28 15:57 -25.54911 158.03455 35142 ft 484 kts 59°
2026-04-28 15:57 -25.52238 158.10254 35136 ft 484 kts 59°
2026-04-28 15:58 -25.49538 158.17089 35140 ft 484 kts 59°
2026-04-28 15:58 -25.46835 158.23920 35112 ft 484 kts 59°
2026-04-28 15:59 -25.44128 158.30738 35120 ft 484 kts 59°
2026-04-28 15:59 -25.41417 158.37566 35127 ft 484 kts 59°
2026-04-28 16:00 -25.38710 158.44391 35131 ft 484 kts 59°
2026-04-28 16:00 -25.35998 158.51206 35133 ft 484 kts 59°
2026-04-28 16:01 -25.33298 158.57969 35124 ft 484 kts 59°
2026-04-28 16:01 -25.30579 158.64768 35131 ft 484 kts 59°
2026-04-28 16:02 -25.27851 158.71568 35124 ft 484 kts 59°
2026-04-28 16:02 -25.25120 158.78360 35111 ft 483 kts 59°
2026-04-28 16:03 -25.22415 158.85116 35120 ft 483 kts 59°
2026-04-28 16:03 -25.19694 158.91889 35117 ft 482 kts 59°
2026-04-28 16:04 -25.16970 158.98666 35121 ft 482 kts 59°
2026-04-28 16:04 -25.14241 159.05420 35124 ft 482 kts 59°
2026-04-28 16:05 -25.11511 159.12167 35123 ft 481 kts 59°
2026-04-28 16:05 -25.08781 159.18918 35118 ft 481 kts 59°
2026-04-28 16:06 -25.06051 159.25656 35109 ft 481 kts 58°
2026-04-28 16:06 -25.03325 159.32391 35092 ft 481 kts 59°
2026-04-28 16:07 -25.00606 159.39083 35096 ft 482 kts 58°
2026-04-28 16:08 -24.96476 159.49196 35104 ft 481 kts 58°
2026-04-28 16:08 -24.93727 159.55921 35101 ft 482 kts 58°
2026-04-28 16:09 -24.89614 159.66021 35107 ft 481 kts 58°
2026-04-28 16:10 -24.85477 159.76089 35107 ft 481 kts 58°
2026-04-28 16:10 -24.81339 159.86149 35087 ft 481 kts 58°
2026-04-28 16:11 -24.75850 159.99502 35096 ft 480 kts 58°
2026-04-28 16:12 -24.71708 160.09530 35093 ft 480 kts 58°
2026-04-28 16:13 -24.67553 160.19558 35093 ft 480 kts 58°
2026-04-28 16:14 -24.62014 160.32903 35066 ft 480 kts 57°
2026-04-28 16:15 -24.56454 160.46234 35068 ft 480 kts 57°
2026-04-28 16:15 -24.53663 160.52890 35071 ft 480 kts 57°
2026-04-28 16:16 -24.49493 160.62850 35061 ft 480 kts 56°
2026-04-28 16:17 -24.45289 160.72848 35062 ft 481 kts 56°
2026-04-28 16:17 -24.42491 160.79510 35069 ft 481 kts 56°
2026-04-28 16:18 -24.39700 160.86150 35077 ft 481 kts 56°
2026-04-28 16:18 -24.36879 160.92801 35034 ft 481 kts 55°
2026-04-28 16:19 -24.34054 160.99473 35041 ft 482 kts 55°
2026-04-28 16:19 -24.31226 161.06159 35051 ft 483 kts 55°
2026-04-28 16:20 -24.28395 161.12836 35053 ft 483 kts 55°
2026-04-28 16:20 -24.25562 161.19522 35057 ft 483 kts 55°
2026-04-28 16:21 -24.22720 161.26186 35044 ft 483 kts 54°
2026-04-28 16:21 -24.19883 161.32827 35041 ft 484 kts 54°
2026-04-28 16:22 -24.17033 161.39519 35049 ft 485 kts 54°
2026-04-28 16:22 -24.14175 161.46216 35029 ft 486 kts 54°
2026-04-28 16:23 -24.11296 161.52925 35036 ft 487 kts 54°
2026-04-28 16:23 -24.08425 161.59646 35022 ft 488 kts 54°
2026-04-28 16:24 -24.05540 161.66376 35035 ft 489 kts 53°
2026-04-28 16:24 -24.02642 161.73116 35035 ft 489 kts 54°
2026-04-28 16:25 -23.99763 161.79809 35035 ft 490 kts 53°
2026-04-28 16:25 -23.96866 161.86549 35050 ft 490 kts 54°
2026-04-28 16:26 -23.93961 161.93288 35052 ft 489 kts 53°
2026-04-28 16:26 -23.91043 162.00017 35021 ft 490 kts 53°
2026-04-28 16:27 -23.88126 162.06754 35029 ft 491 kts 53°
2026-04-28 16:28 -23.83737 162.16880 35041 ft 492 kts 53°
2026-04-28 16:28 -23.80799 162.23639 35054 ft 492 kts 53°
2026-04-28 16:29 -23.76414 162.33723 35050 ft 492 kts 53°
2026-04-28 16:30 -23.71992 162.43843 35047 ft 492 kts 53°
2026-04-28 16:30 -23.69043 162.50592 35047 ft 493 kts 53°
2026-04-28 16:31 -23.66092 162.57351 35050 ft 493 kts 53°
2026-04-28 16:31 -23.63135 162.64110 35033 ft 493 kts 53°
2026-04-28 16:32 -23.60192 162.70817 35040 ft 494 kts 53°
2026-04-28 16:32 -23.55732 162.80951 35048 ft 494 kts 53°
2026-04-28 16:33 -23.53766 162.85415 35051 ft 493 kts 53°
2026-04-28 16:33 -23.49799 162.94391 35056 ft 494 kts 53°
2026-04-28 16:34 -23.46828 163.01141 35048 ft 495 kts 53°
2026-04-28 16:34 -23.44115 163.08081 35033 ft 500 kts 57°
2026-04-28 16:35 -23.41619 163.15153 35051 ft 501 kts 58°
2026-04-28 16:35 -23.39098 163.22213 35056 ft 499 kts 57°
2026-04-28 16:36 -23.36496 163.29201 35057 ft 497 kts 56°
2026-04-28 16:36 -23.33875 163.36106 35046 ft 496 kts 56°
2026-04-28 16:37 -23.31249 163.43055 35051 ft 496 kts 56°
2026-04-28 16:38 -23.27344 163.53484 35051 ft 496 kts 56°
2026-04-28 16:38 -23.24741 163.60433 35047 ft 495 kts 56°
2026-04-28 16:39 -23.22126 163.67359 35020 ft 496 kts 57°
2026-04-28 16:39 -23.19934 163.73130 35006 ft 495 kts 56°
2026-04-28 16:40 -23.16880 163.81189 35029 ft 496 kts 57°
2026-04-28 16:40 -23.14686 163.87002 35017 ft 498 kts 57°
2026-04-28 16:41 -23.12038 163.93980 35046 ft 499 kts 57°
2026-04-28 16:41 -23.09427 164.00885 35028 ft 496 kts 57°
2026-04-28 16:42 -23.06803 164.07815 35032 ft 495 kts 57°
2026-04-28 16:42 -23.04177 164.14720 35042 ft 494 kts 56°
2026-04-28 16:43 -23.01538 164.21605 35045 ft 494 kts 57°
2026-04-28 16:43 -22.98914 164.28495 35049 ft 495 kts 56°
2026-04-28 16:44 -22.96275 164.35383 35048 ft 494 kts 56°
2026-04-28 16:44 -22.93633 164.42259 35024 ft 494 kts 56°
2026-04-28 16:45 -22.91013 164.49093 35039 ft 493 kts 56°
2026-04-28 16:45 -22.88379 164.55955 35030 ft 492 kts 56°
2026-04-28 16:46 -22.85746 164.62793 35021 ft 492 kts 56°
2026-04-28 16:46 -22.83111 164.69641 35030 ft 492 kts 56°
2026-04-28 16:47 -22.80474 164.76478 35034 ft 491 kts 56°
2026-04-28 16:47 -22.77830 164.83306 35046 ft 491 kts 56°
2026-04-28 16:48 -22.75185 164.90115 35044 ft 490 kts 56°
2026-04-28 16:48 -22.72546 164.96921 35046 ft 490 kts 56°
2026-04-28 16:49 -22.69927 165.03680 35034 ft 489 kts 57°
2026-04-28 16:49 -22.67298 165.10456 35047 ft 487 kts 57°
2026-04-28 16:50 -22.64665 165.17221 35048 ft 486 kts 57°
2026-04-28 16:50 -22.62027 165.23969 35047 ft 485 kts 57°
2026-04-28 16:51 -22.59392 165.30694 35045 ft 485 kts 57°
2026-04-28 16:51 -22.56787 165.37376 35042 ft 484 kts 57°
2026-04-28 16:52 -22.54162 165.44092 35039 ft 484 kts 57°
2026-04-28 16:52 -22.51533 165.50791 35035 ft 484 kts 57°
2026-04-28 16:53 -22.48904 165.57491 35032 ft 484 kts 57°
2026-04-28 16:53 -22.46283 165.64149 35024 ft 483 kts 57°
2026-04-28 16:54 -22.43651 165.70831 35013 ft 483 kts 58°
2026-04-28 16:54 -22.41014 165.77508 35016 ft 483 kts 58°
2026-04-28 16:55 -22.38384 165.84188 35002 ft 484 kts 59°
2026-04-28 16:55 -22.35737 165.90884 35004 ft 485 kts 59°
2026-04-28 16:56 -22.33073 165.97577 35003 ft 485 kts 59°
2026-04-28 16:56 -22.30407 166.04276 35006 ft 486 kts 59°
2026-04-28 16:57 -22.27757 166.10949 35020 ft 487 kts 59°
2026-04-28 16:57 -22.25089 166.17672 35011 ft 487 kts 59°
2026-04-28 16:58 -22.22412 166.24399 35014 ft 488 kts 59°
2026-04-28 16:58 -22.19715 166.31139 34996 ft 489 kts 58°
2026-04-28 16:59 -22.17015 166.37877 35011 ft 489 kts 59°
2026-04-28 16:59 -22.14325 166.44617 35020 ft 489 kts 58°
2026-04-28 17:00 -22.11646 166.51314 35028 ft 489 kts 58°
2026-04-28 17:00 -22.08945 166.58046 35046 ft 488 kts 58°
2026-04-28 17:01 -22.06242 166.64768 35055 ft 489 kts 58°
2026-04-28 17:01 -22.03542 166.71485 35058 ft 488 kts 58°
2026-04-28 17:02 -22.00842 166.78191 35047 ft 488 kts 58°
2026-04-28 17:02 -21.98140 166.84889 35040 ft 487 kts 58°
2026-04-28 17:03 -21.94080 166.94929 35034 ft 487 kts 58°
2026-04-28 17:03 -21.91358 167.01623 35014 ft 488 kts 58°
2026-04-28 17:04 -21.87276 167.11666 35029 ft 488 kts 58°
2026-04-28 17:05 -21.83200 167.21726 35037 ft 489 kts 58°
2026-04-28 17:06 -21.79099 167.31785 35042 ft 489 kts 58°
2026-04-28 17:06 -21.74990 167.41849 35044 ft 490 kts 58°
2026-04-28 17:07 -21.72270 167.48507 35043 ft 489 kts 58°
2026-04-28 17:07 -21.69526 167.55204 35040 ft 490 kts 58°
2026-04-28 17:08 -21.66782 167.61907 35031 ft 489 kts 59°
2026-04-28 17:08 -21.64030 167.68601 35032 ft 489 kts 59°
2026-04-28 17:09 -21.61274 167.75290 35039 ft 489 kts 59°
2026-04-28 17:09 -21.58525 167.81983 35036 ft 489 kts 59°
2026-04-28 17:10 -21.55774 167.88670 35041 ft 489 kts 59°
2026-04-28 17:10 -21.53018 167.95340 35036 ft 488 kts 58°
2026-04-28 17:11 -21.50260 168.02019 35024 ft 490 kts 58°
2026-04-28 17:11 -21.47508 168.08662 35012 ft 490 kts 58°
2026-04-28 17:12 -21.44726 168.15353 35011 ft 491 kts 58°
2026-04-28 17:12 -21.41946 168.22054 35012 ft 491 kts 58°
2026-04-28 17:13 -21.39172 168.28746 35011 ft 491 kts 58°
2026-04-28 17:13 -21.36394 168.35440 35002 ft 491 kts 58°
2026-04-28 17:14 -21.33603 168.42133 35008 ft 491 kts 58°
2026-04-28 17:14 -21.30805 168.48830 35015 ft 492 kts 58°
2026-04-28 17:15 -21.28008 168.55522 35018 ft 492 kts 58°
2026-04-28 17:15 -21.25208 168.62219 35020 ft 492 kts 58°
2026-04-28 17:16 -21.22409 168.68915 35025 ft 492 kts 58°
2026-04-28 17:16 -21.19603 168.75608 35012 ft 493 kts 58°
2026-04-28 17:17 -21.16807 168.82270 35018 ft 493 kts 58°
2026-04-28 17:17 -21.13986 168.88968 35022 ft 493 kts 58°
2026-04-28 17:18 -21.11165 168.95661 35026 ft 493 kts 58°
2026-04-28 17:18 -21.08349 169.02351 35027 ft 493 kts 58°
2026-04-28 17:19 -21.05523 169.09035 35030 ft 493 kts 58°
2026-04-28 17:19 -21.02698 169.15725 35033 ft 493 kts 58°
2026-04-28 17:20 -21.00346 169.21285 35029 ft 493 kts 58°
2026-04-28 17:20 -20.97036 169.29110 35034 ft 494 kts 58°
2026-04-28 17:21 -20.94198 169.35798 35036 ft 494 kts 58°
2026-04-28 17:22 -20.89924 169.45822 35035 ft 493 kts 58°
2026-04-28 17:22 -20.87078 169.52510 35039 ft 494 kts 58°
2026-04-28 17:23 -20.82814 169.62524 35036 ft 493 kts 58°
2026-04-28 17:23 -20.79965 169.69192 35041 ft 492 kts 58°
2026-04-28 17:24 -20.77138 169.75805 35036 ft 492 kts 58°
2026-04-28 17:24 -20.74292 169.82445 35041 ft 491 kts 58°
2026-04-28 17:25 -20.70022 169.92393 35038 ft 490 kts 58°
2026-04-28 17:26 -20.67179 169.99003 35039 ft 490 kts 58°
2026-04-28 17:26 -20.64339 170.05613 35042 ft 490 kts 58°
2026-04-28 17:27 -20.61498 170.12212 35033 ft 489 kts 58°
2026-04-28 17:27 -20.59133 170.17698 35034 ft 489 kts 59°
2026-04-28 17:28 -20.56289 170.24291 35026 ft 489 kts 59°
2026-04-28 17:28 -20.52014 170.34168 35008 ft 489 kts 59°
2026-04-28 17:29 -20.49165 170.40758 35018 ft 489 kts 59°
2026-04-28 17:30 -20.44883 170.50627 35017 ft 489 kts 59°
2026-04-28 17:30 -20.40968 170.60723 35013 ft 492 kts 63°
2026-04-28 17:31 -20.37225 170.70922 35017 ft 492 kts 62°
2026-04-28 17:32 -20.33344 170.81042 35018 ft 492 kts 62°
2026-04-28 17:32 -20.30735 170.87781 35016 ft 492 kts 62°
2026-04-28 17:33 -20.28148 170.94529 35015 ft 492 kts 62°
2026-04-28 17:33 -20.26003 171.00149 35015 ft 493 kts 62°
2026-04-28 17:34 -20.22972 171.08047 35004 ft 493 kts 62°
2026-04-28 17:34 -20.20391 171.14757 35012 ft 493 kts 62°
2026-04-28 17:35 -20.17794 171.21512 35019 ft 493 kts 62°
2026-04-28 17:35 -20.15191 171.28256 35019 ft 492 kts 62°
2026-04-28 17:36 -20.12578 171.34993 35016 ft 492 kts 62°
2026-04-28 17:36 -20.09971 171.41741 35015 ft 493 kts 62°
2026-04-28 17:37 -20.07363 171.48484 35016 ft 493 kts 62°
2026-04-28 17:37 -20.04746 171.55227 35017 ft 493 kts 62°
2026-04-28 17:38 -20.02123 171.61982 35019 ft 493 kts 62°
2026-04-28 17:38 -19.99520 171.68682 35017 ft 494 kts 62°
2026-04-28 17:39 -19.96896 171.75425 35017 ft 494 kts 62°
2026-04-28 17:40 -19.92947 171.85545 35016 ft 494 kts 62°
2026-04-28 17:40 -19.90320 171.92296 35024 ft 493 kts 62°
2026-04-28 17:41 -19.87686 171.99019 35023 ft 492 kts 62°
2026-04-28 17:41 -19.85074 172.05693 35019 ft 492 kts 62°
2026-04-28 17:42 -19.82446 172.12413 35024 ft 492 kts 62°
2026-04-28 17:42 -19.79809 172.19110 35022 ft 491 kts 62°
2026-04-28 17:43 -19.77177 172.25797 35022 ft 491 kts 62°
2026-04-28 17:43 -19.74546 172.32488 35018 ft 490 kts 62°
2026-04-28 17:44 -19.71915 172.39162 35018 ft 490 kts 62°
2026-04-28 17:44 -19.69296 172.45801 35017 ft 490 kts 62°
2026-04-28 17:45 -19.66667 172.52464 35017 ft 489 kts 62°
2026-04-28 17:45 -19.64041 172.59117 35004 ft 489 kts 63°
2026-04-28 17:46 -19.61415 172.65759 35020 ft 487 kts 63°
2026-04-28 17:46 -19.58780 172.72371 35019 ft 486 kts 63°
2026-04-28 17:47 -19.56156 172.78980 35017 ft 485 kts 63°
2026-04-28 17:47 -19.53536 172.85574 35019 ft 485 kts 62°
2026-04-28 17:48 -19.50913 172.92160 35006 ft 485 kts 63°
2026-04-28 17:48 -19.48315 172.98685 34996 ft 482 kts 63°
2026-04-28 17:49 -19.45698 173.05255 34993 ft 484 kts 62°
2026-04-28 17:49 -19.43072 173.11811 34992 ft 484 kts 62°
2026-04-28 17:50 -19.40433 173.18375 34993 ft 484 kts 63°
2026-04-28 17:50 -19.37806 173.24962 34997 ft 485 kts 63°
2026-04-28 17:51 -19.35171 173.31536 35003 ft 485 kts 63°
2026-04-28 17:51 -19.32542 173.38056 34999 ft 485 kts 63°
2026-04-28 17:52 -19.29904 173.44631 34999 ft 485 kts 64°
2026-04-28 17:52 -19.25945 173.54496 34998 ft 485 kts 63°
2026-04-28 17:53 -19.23293 173.61066 35000 ft 486 kts 63°
2026-04-28 17:53 -19.20631 173.67641 35000 ft 486 kts 63°
2026-04-28 17:54 -19.17975 173.74208 35010 ft 484 kts 63°
2026-04-28 17:54 -19.15334 173.80732 35004 ft 485 kts 63°
2026-04-28 17:55 -19.12674 173.87283 35017 ft 485 kts 63°
2026-04-28 17:55 -19.10013 173.93856 35003 ft 485 kts 63°
2026-04-28 17:56 -19.07351 174.00423 35001 ft 486 kts 63°
2026-04-28 17:56 -19.04701 174.06951 35002 ft 486 kts 63°
2026-04-28 17:57 -19.02029 174.13517 34992 ft 486 kts 63°
2026-04-28 17:57 -18.99352 174.20083 34977 ft 486 kts 63°
2026-04-28 17:58 -18.96681 174.26632 34984 ft 485 kts 63°
2026-04-28 17:58 -18.94006 174.33179 34989 ft 484 kts 63°
2026-04-28 17:59 -18.91339 174.39706 34988 ft 484 kts 63°
2026-04-28 17:59 -18.88666 174.46234 34980 ft 484 kts 63°
2026-04-28 18:00 -18.85998 174.52764 34970 ft 484 kts 63°
2026-04-28 18:00 -18.83320 174.59282 34989 ft 485 kts 63°
2026-04-28 18:01 -18.80660 174.65775 35010 ft 484 kts 64°
2026-04-28 18:01 -18.77962 174.72311 35011 ft 485 kts 63°
2026-04-28 18:02 -18.75272 174.78842 35004 ft 485 kts 64°
2026-04-28 18:02 -18.72584 174.85362 34999 ft 484 kts 63°
2026-04-28 18:03 -18.69888 174.91873 34987 ft 484 kts 63°
2026-04-28 18:03 -18.67216 174.98342 34988 ft 483 kts 64°
2026-04-28 18:04 -18.64525 175.04864 34991 ft 483 kts 64°
2026-04-28 18:04 -18.61834 175.11361 34982 ft 484 kts 64°
2026-04-28 18:05 -18.59595 175.16765 34972 ft 484 kts 64°
2026-04-28 18:05 -18.56456 175.24321 34978 ft 484 kts 63°
2026-04-28 18:06 -18.53748 175.30830 34974 ft 485 kts 63°
2026-04-28 18:06 -18.51051 175.37344 34972 ft 484 kts 64°
2026-04-28 18:07 -18.48353 175.43840 34968 ft 484 kts 64°
2026-04-28 18:07 -18.45640 175.50328 34966 ft 484 kts 63°
2026-04-28 18:08 -18.42921 175.56819 34969 ft 485 kts 64°
2026-04-28 18:08 -18.40228 175.63280 34972 ft 485 kts 63°
2026-04-28 18:09 -18.37508 175.69771 34971 ft 484 kts 64°
2026-04-28 18:09 -18.34786 175.76264 34975 ft 484 kts 64°
2026-04-28 18:10 -18.32533 175.82934 34972 ft 486 kts 75°
2026-04-28 18:10 -18.31015 175.89863 34977 ft 486 kts 75°
2026-04-28 18:11 -18.29475 175.96792 34959 ft 486 kts 75°
2026-04-28 18:11 -18.28695 176.00255 34726 ft 486 kts 75°
2026-04-28 18:11 -18.27914 176.03722 34492 ft 486 kts 75°
2026-04-28 18:12 -18.27136 176.07184 34267 ft 487 kts 75°
2026-04-28 18:12 -18.26362 176.10652 34012 ft 487 kts 75°
2026-04-28 18:12 -18.25588 176.14132 32989 ft 492 kts 75°
2026-04-28 18:12 -18.24806 176.17641 32086 ft 494 kts 75°
2026-04-28 18:13 -18.24019 176.21170 31095 ft 497 kts 75°
2026-04-28 18:13 -18.23225 176.24721 30085 ft 500 kts 75°
2026-04-28 18:13 -18.22424 176.28289 28911 ft 501 kts 75°
2026-04-28 18:13 -18.21621 176.31857 27766 ft 502 kts 75°
2026-04-28 18:14 -18.20815 176.35431 26554 ft 504 kts 75°
2026-04-28 18:14 -18.20004 176.39021 25495 ft 504 kts 75°
2026-04-28 18:14 -18.19204 176.42574 24781 ft 496 kts 75°
2026-04-28 18:14 -18.18413 176.46088 23954 ft 492 kts 75°
2026-04-28 18:15 -18.17636 176.49530 23078 ft 488 kts 75°
2026-04-28 18:15 -18.16858 176.52979 22273 ft 481 kts 75°
2026-04-28 18:15 -18.16092 176.56375 21482 ft 475 kts 75°
2026-04-28 18:15 -18.15332 176.59738 20697 ft 469 kts 75°
2026-04-28 18:16 -18.14579 176.63056 19908 ft 465 kts 74°
2026-04-28 18:16 -18.13833 176.66340 19171 ft 459 kts 75°
2026-04-28 18:16 -18.13098 176.69581 18457 ft 453 kts 75°
2026-04-28 18:16 -18.12614 176.71715 17920 ft 450 kts 75°
2026-04-28 18:17 -18.11896 176.74882 17234 ft 442 kts 75°
2026-04-28 18:17 -18.11190 176.77997 16588 ft 434 kts 76°
2026-04-28 18:17 -18.10492 176.81058 15963 ft 427 kts 76°
2026-04-28 18:17 -18.09786 176.84073 15337 ft 422 kts 73°
2026-04-28 18:18 -18.08867 176.86984 14709 ft 418 kts 71°
2026-04-28 18:18 -18.07929 176.89874 14068 ft 415 kts 71°
2026-04-28 18:18 -18.07000 176.92739 13377 ft 413 kts 71°
2026-04-28 18:18 -18.06386 176.94630 12919 ft 411 kts 71°
2026-04-28 18:19 -18.05161 176.98402 12047 ft 404 kts 71°
2026-04-28 18:19 -18.04257 177.01191 11372 ft 401 kts 72°
2026-04-28 18:19 -18.03373 177.03920 11057 ft 382 kts 72°
2026-04-28 18:19 -18.02541 177.06481 10962 ft 361 kts 72°
2026-04-28 18:20 -18.01757 177.08891 10845 ft 345 kts 72°
2026-04-28 18:20 -18.00999 177.11217 10729 ft 327 kts 71°
2026-04-28 18:20 -18.00290 177.13389 10601 ft 303 kts 72°
2026-04-28 18:20 -17.99624 177.15436 10278 ft 289 kts 72°
2026-04-28 18:21 -17.98978 177.17427 10203 ft 288 kts 72°
2026-04-28 18:21 -17.98334 177.19417 10084 ft 288 kts 72°
2026-04-28 18:21 -17.97688 177.21411 9949 ft 289 kts 72°
2026-04-28 18:21 -17.97034 177.23420 9499 ft 289 kts 72°
2026-04-28 18:22 -17.96387 177.25407 9041 ft 287 kts 72°
2026-04-28 18:22 -17.95744 177.27378 8638 ft 283 kts 72°
2026-04-28 18:22 -17.94997 177.29275 8196 ft 281 kts 65°
2026-04-28 18:22 -17.94158 177.31116 7760 ft 278 kts 66°
2026-04-28 18:23 -17.93329 177.32940 7347 ft 275 kts 65°
2026-04-28 18:23 -17.92508 177.34754 6912 ft 275 kts 65°
2026-04-28 18:23 -17.91687 177.36566 6512 ft 274 kts 65°
2026-04-28 18:23 -17.90867 177.38375 6085 ft 274 kts 65°
2026-04-28 18:24 -17.90048 177.40181 5664 ft 273 kts 65°
2026-04-28 18:24 -17.89509 177.41368 5398 ft 270 kts 66°
2026-04-28 18:24 -17.88432 177.43737 4859 ft 267 kts 66°
2026-04-28 18:24 -17.87656 177.45435 4729 ft 253 kts 66°
2026-04-28 18:25 -17.86914 177.47064 4626 ft 240 kts 67°
2026-04-28 18:25 -17.86153 177.48539 4523 ft 220 kts 56°
2026-04-28 18:25 -17.85155 177.49675 4334 ft 208 kts 42°
2026-04-28 18:26 -17.82976 177.51412 3788 ft 188 kts 41°
2026-04-28 18:26 -17.81958 177.52226 3531 ft 178 kts 43°
2026-04-28 18:26 -17.80992 177.52987 3316 ft 170 kts 39°
2026-04-28 18:26 -17.79972 177.53558 3063 ft 163 kts 27°
2026-04-28 18:27 -17.78909 177.53897 2854 ft 158 kts 16°
2026-04-28 18:27 -17.77825 177.54018 2618 ft 156 kts
2026-04-28 18:27 -17.76732 177.53923 2442 ft 159 kts 354°
2026-04-28 18:27 -17.75662 177.53596 2215 ft 161 kts 342°
2026-04-28 18:28 -17.74662 177.53046 1968 ft 164 kts 329°
2026-04-28 18:28 -17.73781 177.52292 1776 ft 165 kts 318°
2026-04-28 18:28 -17.73059 177.51371 1531 ft 164 kts 303°
2026-04-28 18:28 -17.72549 177.50331 1354 ft 158 kts 291°
2026-04-28 18:29 -17.72245 177.49239 1120 ft 155 kts 279°
2026-04-28 18:29 -17.72174 177.48122 910 ft 153 kts 264°
2026-04-28 18:29 -17.72463 177.47070 708 ft 151 kts 239°
2026-04-28 18:29 -17.73122 177.46233 520 ft 149 kts 219°
2026-04-28 18:30 -17.73940 177.45570 320 ft 148 kts 214°
2026-04-28 18:30 -17.74504 177.45137 206 ft 149 kts 216°
2026-04-28 18:30 -17.75575 177.44278 46 ft 135 kts 216°
2026-04-28 18:30 -17.76180 177.43789 47 ft 85 kts 217°
2026-04-28 18:31 -17.76515 177.43524 47 ft 35 kts 217°
2026-04-28 18:31 -17.76682 177.43384 47 ft 31 kts 219°
2026-04-28 18:31 -17.76859 177.43243 47 ft 33 kts 218°
2026-04-28 18:31 -17.77044 177.43094 45 ft 34 kts 217°
2026-04-28 18:32 -17.77210 177.42957 44 ft 25 kts 225°
2026-04-28 18:32 -17.77291 177.42847 44 ft 16 kts 159°
2026-04-28 18:32 -17.77243 177.42934 47 ft 19 kts 36°
2026-04-28 18:32 -17.77122 177.43029 45 ft 25 kts 39°
2026-04-28 18:33 -17.76977 177.43153 47 ft 29 kts 39°
2026-04-28 18:33 -17.76814 177.43287 47 ft 31 kts 36°
2026-04-28 18:33 -17.76638 177.43420 44 ft 32 kts 36°
2026-04-28 18:33 -17.76460 177.43560 45 ft 32 kts 38°
2026-04-28 18:34 -17.76363 177.43640 47 ft 33 kts 38°
2026-04-28 18:34 -17.76254 177.43725 47 ft 33 kts 37°
2026-04-28 18:34 -17.76166 177.43796 47 ft 33 kts 38°
2026-04-28 18:34 -17.76064 177.43880 47 ft 34 kts 38°
2026-04-28 18:35 -17.75875 177.44030 47 ft 34 kts 36°
2026-04-28 18:35 -17.75732 177.44145 45 ft 35 kts 38°
2026-04-28 18:35 -17.75590 177.44261 45 ft 34 kts 37°
2026-04-28 18:35 -17.75404 177.44411 47 ft 33 kts 38°
2026-04-28 18:36 -17.75227 177.44554 47 ft 31 kts 37°
2026-04-28 18:36 -17.75112 177.44685 47 ft 19 kts 100°
2026-04-28 18:36 -17.75137 177.44804 47 ft 17 kts 102°
2026-04-28 18:36 -17.75165 177.44923 45 ft 14 kts 105°
2026-04-28 18:37 -17.75183 177.44998 47 ft 7 kts 104°
2026-04-28 18:37 -17.75186 177.45008 47 ft 0 kts 104°